Hourly Data Report for September 13, 2004

SHERBROOKE A
QUEBEC

45°26'00.000" N
71°41'00.000" W
241.40 m
7028124
71610
YSC

Download Data

Hourly Data (September 2004)
Hourly Data Report for September 13, 2004
TIME
LST
Temp Definition
°C
Dew Point Definition
°C
Rel Hum Definition
%
Precip. Amount Definition
mm

Wind Dir Definition
10's deg

Wind Spd Definition
km/h
Visibility Definition
km
Stn Press Definition
kPa
Hmdx Definition


Wind Chill Definition


Weather Definition


00:00 13.9 11.6 86   32 11 15.0 99.14      
01:00 12.0 8.4 79   34 4 15.0 99.19      
02:00 10.7 8.3 85   31 4 15.0 99.24      
03:00 10.1 7.5 84   30 9 15.0 99.31      
04:00 9.0 6.4 84   32 9 15.0 99.36      
05:00 7.2 5.4 88   31 7 15.0 99.41      
06:00 7.2 4.6 84   32 11 15.0 99.52      
07:00 7.1 4.3 82   30 17 24.1 99.58     Mostly Cloudy
08:00 8.2 4.2 76   36 9 24.1 99.64     Mostly Cloudy
09:00 9.3 4.3 71   32 7 24.1 99.67     Mostly Cloudy
10:00 10.7 5.1 68   27 7 24.1 99.68     Mostly Cloudy
11:00 12.1 5.3 63   28 9 24.1 99.66     Mainly Clear
12:00 13.1 5.6 60   33 15 24.1 99.64     Mainly Clear
13:00 14.5 5.7 55   33 7 24.1 99.61     Mainly Clear
14:00 15.2 6.2 55   32 15 24.1 99.58     Mainly Clear
15:00 15.3 6.4 55   32 9 24.1 99.59     Mainly Clear
16:00 14.7 5.4 54   34 9 24.1 99.59     Mainly Clear
17:00 14.1 6.3 59   33 7 15.0 99.62      
18:00 11.5 6.9 73   31 4 15.0 99.67      
19:00 8.5 6.5 87   21 6 15.0 99.71      
20:00 7.2 5.8 91   14 4 15.0 99.78      
21:00 6.6 5.5 93     0 15.0 99.84      
22:00 6.2 5.3 94   10 6 15.0 99.87      
23:00 5.7 4.8 94   8 6 15.0 99.87      

Notes on Data Quality.

Legend

  • E = Estimated
  • M = Missing
  • NA = Not Available*
  • [empty] = Indicates an unobserved value
Date modified: